When you browse on this site, cookies collect data to enhance your experience and personalize the content and advertising you see.
Visit our Privacy Policy to learn more. By continuing to use the site, you agree to this use of cookies and data.
  • En España
  • Lista de países
  • Para 7 días
  • Temperatura del agua
  • Mapa Satelital
  • El tiempo en el mapa
  • Informadores
  • user-avatar
    Iniciar sesión

    Tiempo cada hora Ahmedabad

    Hoy, 17 Julio, Miércoles

    Tiempo Temperatura Precipitaciones Viento Presión Humedad
    00:00 +34°C° 0 mm 4 mps 748 mmHg 59%
    01:00 +33°C° 0 mm 5 mps 748 mmHg 61%
    02:00 +33°C° 0 mm 5 mps 747 mmHg 62%
    03:00 +32°C° 0 mm 5 mps 748 mmHg 63%
    04:00 +32°C° 0 mm 4 mps 748 mmHg 64%
    05:00 +31°C° 0 mm 2 mps 748 mmHg 70%
    06:00 +31°C° 0.1 mm 3 mps 748 mmHg 67%
    07:00 +33°C° 0.1 mm 3 mps 748 mmHg 65%
    08:00 +33°C° 0.1 mm 4 mps 748 mmHg 63%
    09:00 +34°C° 0 mm 4 mps 748 mmHg 57%
    10:00 +36°C° 0 mm 5 mps 748 mmHg 52%
    11:00 +37°C° 0 mm 5 mps 749 mmHg 46%
    12:00 +37°C° 0 mm 5 mps 748 mmHg 45%
    13:00 +37°C° 0 mm 5 mps 747 mmHg 45%
    14:00 +37°C° 0 mm 4 mps 747 mmHg 45%
    15:00 +39°C° 0 mm 5 mps 747 mmHg 44%
    16:00 +39°C° 0 mm 5 mps 747 mmHg 44%
    17:00 +39°C° 0 mm 5 mps 746 mmHg 44%
    18:00 +37°C° 0 mm 4 mps 747 mmHg 46%
    19:00 +36°C° 0 mm 4 mps 747 mmHg 48%
    20:00 +36°C° 0 mm 4 mps 747 mmHg 50%
    21:00 +35°C° 0 mm 4 mps 747 mmHg 52%
    22:00 +35°C° 0 mm 4 mps 748 mmHg 54%
    23:00 +34°C° 0 mm 5 mps 748 mmHg 56%

    Mañana, 18 Julio, Jueves

    Tiempo Temperatura Precipitaciones Viento Presión Humedad
    00:00 +34°C° 0 mm 5 mps 748 mmHg 59%
    01:00 +33°C° 0 mm 5 mps 747 mmHg 61%
    02:00 +32°C° 0 mm 5 mps 747 mmHg 63%
    03:00 +32°C° 0 mm 4 mps 747 mmHg 65%
    04:00 +32°C° 0 mm 4 mps 747 mmHg 66%
    05:00 +30°C° 0 mm 3 mps 747 mmHg 67%
    06:00 +31°C° 0 mm 3 mps 747 mmHg 65%
    07:00 +31°C° 0 mm 3 mps 747 mmHg 62%
    08:00 +33°C° 0 mm 4 mps 748 mmHg 59%
    09:00 +34°C° 0 mm 4 mps 748 mmHg 54%
    10:00 +36°C° 0 mm 4 mps 748 mmHg 48%
    11:00 +37°C° 0 mm 5 mps 748 mmHg 43%
    12:00 +39°C° 0 mm 5 mps 747 mmHg 40%
    13:00 +40°C° 0 mm 4 mps 747 mmHg 38%
    14:00 +41°C° 0 mm 4 mps 746 mmHg 35%
    15:00 +41°C° 0 mm 4 mps 746 mmHg 35%
    16:00 +41°C° 0 mm 4 mps 745 mmHg 35%
    17:00 +41°C° 0 mm 5 mps 745 mmHg 35%
    18:00 +40°C° 0 mm 5 mps 745 mmHg 40%
    19:00 +37°C° 0 mm 5 mps 746 mmHg 46%
    20:00 +36°C° 0 mm 5 mps 746 mmHg 51%
    21:00 +36°C° 0 mm 5 mps 746 mmHg 52%
    22:00 +35°C° 0 mm 4 mps 747 mmHg 53%
    23:00 +35°C° 0 mm 4 mps 747 mmHg 54%

    Pasado mañana, 19 Julio, Viernes

    Tiempo Temperatura Precipitaciones Viento Presión Humedad
    00:00 +34°C° 0 mm 4 mps 747 mmHg 56%
    01:00 +34°C° 0 mm 4 mps 747 mmHg 57%
    02:00 +33°C° 0 mm 4 mps 746 mmHg 59%
    03:00 +33°C° 0 mm 3 mps 747 mmHg 60%
    04:00 +33°C° 0 mm 3 mps 747 mmHg 61%
    05:00 +31°C° 0 mm 3 mps 747 mmHg 62%
    06:00 +33°C° 0 mm 3 mps 747 mmHg 60%
    07:00 +33°C° 0 mm 3 mps 747 mmHg 58%
    08:00 +33°C° 0 mm 3 mps 748 mmHg 57%
    09:00 +35°C° 0 mm 3 mps 748 mmHg 52%
    10:00 +36°C° 0 mm 3 mps 748 mmHg 47%
    11:00 +37°C° 0 mm 3 mps 748 mmHg 42%
    12:00 +38°C° 0 mm 4 mps 747 mmHg 39%
    13:00 +40°C° 0 mm 4 mps 747 mmHg 36%
    14:00 +41°C° 0 mm 4 mps 746 mmHg 33%
    15:00 +40°C° 0 mm 3 mps 746 mmHg 32%
    16:00 +40°C° 0 mm 3 mps 745 mmHg 31%
    17:00 +42°C° 0 mm 3 mps 745 mmHg 31%
    18:00 +40°C° 0 mm 4 mps 745 mmHg 36%
    19:00 +38°C° 0 mm 4 mps 745 mmHg 41%
    20:00 +36°C° 0 mm 5 mps 746 mmHg 47%
    21:00 +35°C° 0 mm 5 mps 746 mmHg 51%
    22:00 +35°C° 0 mm 5 mps 746 mmHg 55%
    23:00 +34°C° 0 mm 5 mps 747 mmHg 59%

    20 Julio, Sábado

    Tiempo Temperatura Precipitaciones Viento Presión Humedad
    00:00 +34°C° 0 mm 4 mps 747 mmHg 59%
    01:00 +34°C° 0 mm 4 mps 746 mmHg 59%
    02:00 +34°C° 0 mm 3 mps 746 mmHg 59%
    03:00 +33°C° 0 mm 3 mps 746 mmHg 61%
    04:00 +33°C° 0 mm 4 mps 746 mmHg 63%
    05:00 +32°C° 0 mm 4 mps 747 mmHg 65%
    06:00 +33°C° 0 mm 4 mps 747 mmHg 63%
    07:00 +33°C° 0 mm 4 mps 747 mmHg 60%
    08:00 +34°C° 0 mm 3 mps 748 mmHg 58%
    09:00 +35°C° 0 mm 3 mps 748 mmHg 54%
    10:00 +36°C° 0 mm 3 mps 748 mmHg 49%
    11:00 +38°C° 0 mm 2 mps 748 mmHg 45%
    12:00 +39°C° 0 mm 2 mps 747 mmHg 41%
    13:00 +40°C° 0 mm 2 mps 747 mmHg 37%
    14:00 +41°C° 0 mm 2 mps 746 mmHg 33%
    15:00 +42°C° 0 mm 3 mps 746 mmHg 32%
    16:00 +42°C° 0 mm 3 mps 745 mmHg 31%
    17:00 +43°C° 0 mm 3 mps 745 mmHg 30%
    18:00 +41°C° 0 mm 4 mps 745 mmHg 36%
    19:00 +39°C° 0 mm 5 mps 745 mmHg 42%
    20:00 +36°C° 0 mm 6 mps 746 mmHg 48%
    21:00 +36°C° 0 mm 5 mps 746 mmHg 51%
    22:00 +35°C° 0 mm 5 mps 746 mmHg 54%
    23:00 +35°C° 0 mm 4 mps 746 mmHg 57%

    21 Julio, Domingo

    Tiempo Temperatura Precipitaciones Viento Presión Humedad
    00:00 +34°C° 0 mm 5 mps 746 mmHg 57%
    01:00 +34°C° 0 mm 5 mps 746 mmHg 57%
    02:00 +34°C° 0 mm 5 mps 745 mmHg 57%
    03:00 +33°C° 0 mm 5 mps 745 mmHg 59%
    04:00 +33°C° 0 mm 5 mps 745 mmHg 61%
    05:00 +32°C° 0 mm 5 mps 745 mmHg 64%
    06:00 +33°C° 0 mm 4 mps 746 mmHg 62%
    07:00 +33°C° 0 mm 4 mps 746 mmHg 60%
    08:00 +34°C° 0 mm 4 mps 747 mmHg 59%
    09:00 +35°C° 0.2 mm 4 mps 747 mmHg 54%
    10:00 +36°C° 0.2 mm 3 mps 747 mmHg 50%
    11:00 +38°C° 0.2 mm 3 mps 747 mmHg 45%
    12:00 +40°C° 0 mm 4 mps 746 mmHg 42%
    13:00 +41°C° 0 mm 4 mps 746 mmHg 39%
    14:00 +42°C° 0 mm 4 mps 745 mmHg 35%
    15:00 +42°C° 0 mm 4 mps 744 mmHg 35%
    16:00 +42°C° 0 mm 4 mps 744 mmHg 35%
    17:00 +42°C° 0 mm 4 mps 744 mmHg 35%
    18:00 +40°C° 0 mm 5 mps 744 mmHg 40%
    19:00 +39°C° 0 mm 5 mps 744 mmHg 45%
    20:00 +36°C° 0 mm 6 mps 745 mmHg 50%
    21:00 +36°C° 0 mm 5 mps 745 mmHg 50%
    22:00 +36°C° 0 mm 5 mps 745 mmHg 50%
    23:00 +36°C° 0 mm 5 mps 746 mmHg 50%

    22 Julio, Lunes

    Tiempo Temperatura Precipitaciones Viento Presión Humedad
    00:00 +35°C° 0 mm 5 mps 745 mmHg 53%
    01:00 +34°C° 0 mm 5 mps 745 mmHg 55%
    02:00 +34°C° 0 mm 5 mps 745 mmHg 58%
    03:00 +33°C° 0 mm 4 mps 745 mmHg 60%
    04:00 +33°C° 0 mm 4 mps 745 mmHg 61%
    05:00 +33°C° 0 mm 4 mps 745 mmHg 63%
    06:00 +33°C° 0 mm 4 mps 746 mmHg 62%
    07:00 +33°C° 0 mm 4 mps 746 mmHg 60%
    08:00 +34°C° 0 mm 4 mps 746 mmHg 58%
    09:00 +35°C° 0 mm 3 mps 747 mmHg 54%
    10:00 +36°C° 0 mm 3 mps 747 mmHg 50%
    11:00 +37°C° 0 mm 3 mps 747 mmHg 46%
    12:00 +38°C° 0 mm 3 mps 746 mmHg 43%
    13:00 +39°C° 0 mm 3 mps 745 mmHg 41%
    14:00 +40°C° 0 mm 3 mps 745 mmHg 39%
    15:00 +40°C° 0 mm 4 mps 744 mmHg 40%
    16:00 +40°C° 0 mm 5 mps 744 mmHg 40%
    17:00 +40°C° 0 mm 5 mps 743 mmHg 41%
    18:00 +39°C° 0 mm 5 mps 743 mmHg 45%
    19:00 +37°C° 0 mm 5 mps 744 mmHg 49%
    20:00 +36°C° 0 mm 5 mps 744 mmHg 53%
    21:00 +35°C° 0 mm 5 mps 744 mmHg 56%
    22:00 +35°C° 0 mm 4 mps 745 mmHg 59%
    23:00 +34°C° 0 mm 4 mps 745 mmHg 62%
    Mostrar más